Location: Castle
(40.7167°S, 175.9500°E)
Time: 03:11:51
(UTC+00:00)

USA 267 - Pass Details

Date: 04 August 2024
Orbit: 1096 x 1111 km, 123.1° (Epoch: 03 September)

Event Time Altitude Azimuth Distance (km) Brightness Sun altitude
Rises 16:03:21 0° 84° (E) 3,929 7.1 -37.1°
Reaches altitude 10° 16:06:02 10° 93° (E) 2,973 6.3 -36.6°
Maximum altitude 16:11:51 35° 155° (SSE) 1,711 4.4 -35.5°
Enters shadow 16:12:45 34° 171° (S) 1,753 4.3 -35.4°
